Location: ??
(31.9467°N, 34.8903°E)
Time: 18:18:18
(UTC+00:00)

ASTRO E2 - Pass Details

Date: 29 October 2020
Orbit: 509 x 515 km, 31.4° (Epoch: 29 November)

Event Time Altitude Azimuth Distance (km) Brightness Sun altitude
Rises 15:57:28 0° 268° (W) 2,601 8.2 -14.2°
Reaches altitude 10° 15:59:42 10° 268° (W) 1,715 6.8 -14.7°
Maximum altitude 16:03:39 84° 181° (S) 512 2.6 -15.5°
Enters shadow 16:05:24 32° 94° (E) 890 3.3 -15.9°
